This demonstration page uses our WeatherBlox Daily Observations layout. Learn more.

Left ArrowRight Arrow

38.88101, -77.10428

Hourly Observations for March 31, 2019

Temp ( °F °C ) Dew Point ( °F °C ) Humidity (%) Winds ( mph kmh ) Pressure ( in mb ) Visibility ( mi km ) Precip ( " mm )
12:52 am 00:52 Mostly Cloudy 63 17.2 46 7.8 54 54 S 14 22 29.73 1007 10 16.0934 0 0
1:52 am 01:52 Mostly Cloudy 62 16.7 46 7.8 56 56 S 16 26 29.71 1006 10 16.0934 0 0
2:52 am 02:52 Cloudy 62 16.7 47 8.3 58 58 S 17 28 29.68 1005 10 16.0934 0 0
3:52 am 03:52 Cloudy 62 16.7 47 8.3 58 58 S 15 24 29.67 1005 10 16.0934 0 0
4:52 am 04:52 Cloudy 60 15.6 48 8.9 65 65 S 14 22 29.66 1004 10 16.0934 0 0
5:52 am 05:52 Cloudy 64 17.8 48 8.9 56 56 SSW 14 22 29.67 1005 10 16.0934 0 0
6:52 am 06:52 Mostly Cloudy 64 17.8 48 8.9 56 56 SSW 14 22 29.69 1005 10 16.0934 0 0
7:39 am 07:39 Cloudy with Light Rain 61 16.1 51 10.6 70 70 SSW 12 19 29.72 1006 9 14.48406 0.01 0.254
7:52 am 07:52 Cloudy with Light Rain 61 16.1 51 10.6 70 70 SSW 10 17 29.7 1006 10 16.0934 0.01 0.254
8:52 am 08:52 Cloudy with Light Rain 60 15.6 52 11.1 75 75 SSW 10 17 29.72 1006 10 16.0934 0.01 0.254
9:36 am 09:36 Cloudy with Light Rain 60 15.6 52 11.1 75 75 WNW 18 30 29.76 1008 10 16.0934 0.01 0.254
9:52 am 09:52 Cloudy with Light Rain 58 14.4 47 8.3 67 67 NW 18 30 29.76 1008 10 16.0934 0.02 0.508
10:52 am 10:52 Cloudy with Light Rain 54 12.2 38 3.3 55 55 NW 15 24 29.81 1010 10 16.0934 0 0.0254
11:52 am 11:52 Mostly Cloudy 51 10.6 35 1.7 54 54 NW 17 28 29.85 1011 10 16.0934 0 0.0254
12:52 pm 12:52 Mostly Cloudy 55 12.8 35 1.7 47 47 NNW 18 30 29.85 1011 10 16.0934 0 0
1:52 pm 13:52 Mostly Cloudy 57 13.9 32 0 39 39 NW 21 33 29.86 1011 10 16.0934 0 0
2:26 pm 14:26 Mostly Sunny 58 14.4 31 -0.6 36 36 NW 20 31 29.87 1012 10 16.0934 0 0
2:52 pm 14:52 Mostly Sunny 56 13.3 29 -1.7 36 36 NW 26 43 29.88 1012 10 16.0934 0 0
3:52 pm 15:52 Mostly Sunny 56 13.3 27 -2.8 33 33 NNW 21 33 29.89 1012 10 16.0934 0 0
4:52 pm 16:52 Mostly Sunny 55 12.8 25 -3.9 31 31 WNW 18 30 29.9 1013 10 16.0934 0 0
5:52 pm 17:52 Mostly Cloudy 52 11.1 24 -4.4 34 34 NNW 23 37 29.93 1014 10 16.0934 0 0
6:52 pm 18:52 Mostly Cloudy 51 10.6 23 -5 33 33 NW 15 24 29.97 1015 10 16.0934 0 0
7:52 pm 19:52 Partly Cloudy 47 8.3 20 -6.7 34 34 WNW 20 31 30.01 1016 10 16.0934 0 0
8:52 pm 20:52 Partly Cloudy 45 7.2 19 -7.2 35 35 NW 22 35 30.05 1018 10 16.0934 0 0
9:52 pm 21:52 Mostly Clear 43 6.1 19 -7.2 38 38 NW 18 30 30.09 1019 10 16.0934 0 0
10:52 pm 22:52 Mostly Clear 40 4.4 15 -9.4 36 36 NW 20 31 30.13 1020 10 16.0934 0 0
11:52 pm 23:52 Partly Cloudy 37 2.8 12 -11.1 36 36 NW 16 26 30.17 1022 10 16.0934 0 0

Powered by AerisWeather